Showing default

AUTCUBE 2, 43681

Orbit data source: Space-Track

AUTCUBE 2, 43681 is a payload satellite in SSO that was launched on Mon, 29 Oct 2018 UTC via an H-IIA 202 launch vehicle from the Tanegashima Space Center (TNSTA). Payload-class satellites include a variety of spacecraft equipped with specific instruments for various scientific and technological missions. These include communications satellites like Starlink; space stations such as the ISS; scientific satellites like the Hubble; Earth observation satellites from companies like Planet Labs, Umbra, and HawkEye 360; GPS; miniature CubeSats for education and research; and military/defense satellites.

Loading next visibility...
Identifier
43681, 2018-084K
Orbit
SSO
Country
Flag of TBDTBD
Related business
Manufacturer
AUT
Mission
Operational Amateur Technology
Bus & Motor
CUBESAT 1U, Unknown motor
Mass
1.6 kg wet, 1.6 kg dry
Launch date (UTC)
2018-10-29 (7 years ago)
Launch vehicle
H-IIA 202
Launch site
Tanegashima Space Center (TNSTA)
Object type
Payload
Rocket body
Debris
Shape & HBR
Box, 0.1 m
Radar Cross Section
0.015 m², Small (<0.1 m²)

Expand to show TLE details & history
Last TLE update: 1 day ago

TLE from 1 day ago
0 AUTCUBE 2
1 43681U 18084K   25308.98278841  .00004513  00000-0  29937-3 0  9994
2 43681  98.0816 138.3865 0010870  82.1389 278.1071 15.07767603383111
Epoch: 2025-11-04T23:35Z
TLE epoch observation values (Epoch: 2025-11-04T23:35:12.918Z)
Latitude
-0.00004°
Longitude
100.12069°
Altitude
545.024 km
Speed
7.59 km/s
True Right ascension
09h 13m 32s
True Declination
0° 00' 00"
Sunlit
Object was in daylight at epoch
Visualization orbit readout
Latitude
Unknown
Longitude
Unknown
Altitude
Unknown
Speed
Unknown
Apparent Right ascension
Unknown
Apparent Declination
Unknown
Sunlit
N/A
Visualization observer readout
Local Sidereal Time
20:35:34
Azimuth
Unknown
Elevation
Unknown
Doppler factor
Unknown
Orbital elements
Apogee altitude
547.555 km
Perigee altitude
532.515 km
Semi-major axis
6,918.172 km
Eccentricity
0.00109
Inclination
98.0816°
RAAN
138.3865°
Arg. of periapsis
82.1389°
True anomaly
277.98376°
Mean anomaly
278.1071°
Eccentric anomaly
278.04543°
Mean motion
3.77186 °/min
Orbital period
95.44 mins
BSTAR
0.00029937
Loading maneuver chart data...
Computing Atmospheric mass density...
Loading historical data...
Loading historical data...
Loading historical data...
Loading historical data...
Loading historical data...
Loading historical data...
Loading historical data...

Documentation

Showing up to 5 results
|